Content
SEND FEEDBACK

Daily
Averages
Monthly
Summary
Honduras

TEGUCIGALPA, HONDURAS


Home > Central America > Honduras
Elevation: 3260 feet     Latitude: 14 03N     Longitude: 087 13W

WEATHER
 
SELECT A DAY
Number of Records: 59,195;   Date Range: 7/9/96 - 12/18/14
 
SHARE

PRINT THIS DATA

[ ← Previous Day ]
WEATHER ALMANAC - MARCH 4, 2013
[ Next Day → ]
[ °C ]   °F
Weather ElementAverageHighLow
Temperature65.5 °F82.4 °F (3:00 pm)51 °F (6:00 am)
Dewpoint49.3 °F53.6 °F (9:00 pm)47 °F (12:00 pm)
Humidity58.2 %89 % (6:00 am)21 % (3:00 pm)
Barometer30.13 in30.24 in (12:00 am)29.81 in (3:00 pm)
Wind Speed9.1 mph17.3 mph (9:00 am)
Weather ElementAverage
Visibility6.6 mi
Wind DirectionWSW (252 °)

Weather ElementTotal
Precipitation---
Cooling Degree Days1.7 (Base 65)
Growing Degree Days16.7 (Base 50)
Averaged from 30 records on March 4, 2013
WEATHER CONDITIONS BREAKOUT
WIND DIRECTION BREAKOUT
WEATHER BY HOUR - MARCH 4, 2013
[ °C ]   °F
Local TimeTemperatureDewpointHumidityBarometerVisibilityWind DirectionWind SpeedGust SpeedPrecipitationEventsConditions
12:00 AM53.6 °F48.2 °F82 %30.24 in6.2 miNNW (340°)5.8 mphScattered Clouds
1:00 AM55.4 °F48.2 °F77 %30.21 in6.2 miNNW (340°)2.3 mphPartly Cloudy
2:00 AM53.6 °F50.0 °F88 %30.21 in6.2 miNNW (340°)3.5 mphPartly Cloudy
3:00 AM53.0 °F48.0 °F76 %30.14 in6.0 miNNW (340°)5.8 mphHaze
3:00 AM53.6 °F48.2 °F82 %30.18 in6.2 miNNW (340°)5.8 mphPartly Cloudy
4:00 AM53.6 °F48.2 °F82 %30.18 in6.2 miNNW (330°)4.6 mphScattered Clouds
5:00 AM53.6 °F48.2 °F82 %30.18 in6.2 miWNW (300°)4.6 mphScattered Clouds
6:00 AM51.8 °F48.2 °F88 %30.21 in6.2 miWest (270°)3.5 mphPartly Cloudy
6:00 AM51.0 °F49.0 °F89 %30.17 in6.0 miWest (270°)3.5 mphHaze
7:00 AM55.4 °F50.0 °F82 %30.21 in6.2 miWest (270°)3.5 mphMostly Cloudy
8:00 AM60.8 °F50.0 °F68 %30.24 in6.2 miNorth (350°)10.4 mphMostly Cloudy
9:00 AM64.0 °F49.0 °F49 %30.12 in9.0 miNorth17.3 mphHaze
9:00 AM64.4 °F50.0 °F59 %30.24 in6.2 miNorth (360°)17.3 mphPartly Cloudy
10:00 AM68.0 °F48.2 °F49 %30.21 inNorth (360°)16.1 mphClear
11:00 AM71.6 °F48.2 °F43 %30.18 inNorth (360°)15.0 mphClear
12:00 PM75.2 °F48.2 °F38 %30.15 inNNW (340°)16.1 mphClear
12:00 PM76.0 °F47.0 °F26 %29.95 in11.0 miNNW (340°)16.1 mphHaze
1:00 PM78.8 °F48.2 °F34 %30.09 inNNW (340°)13.8 mphClear
2:00 PM80.6 °F48.2 °F32 %30.06 in6.2 miNorth (360°)15.0 mphPartly Cloudy
3:00 PM82.0 °F49.0 °F21 %29.81 in9.0 miNorth13.8 mphHaze
3:00 PM82.4 °F48.2 °F30 %30.04 in6.2 miNorth (360°)13.8 mphPartly Cloudy
4:00 PM80.6 °F48.2 °F32 %30.04 in6.2 miNorth (360°)11.5 mphPartly Cloudy
5:00 PM78.8 °F50.0 °F36 %30.04 in6.2 miNNE (30°)9.2 mphPartly Cloudy
6:00 PM71.6 °F48.2 °F43 %30.06 in6.2 miENE (70°)9.2 mphScattered Clouds
7:00 PM68.0 °F48.2 °F49 %30.09 inNNE (20°)3.5 mphClear
8:00 PM68.0 °F50.0 °F52 %30.12 inNNE (20°)5.8 mphClear
9:00 PM66.0 °F53.0 °F54 %30.02 in6.0 miNNE (20°)5.8 mphHaze
9:00 PM66.2 °F53.6 °F64 %30.15 in6.2 miNNE (20°)5.8 mphPartly Cloudy
10:00 PM64.4 °F53.6 °F68 %30.18 in6.2 miNorth (360°)6.9 mphPartly Cloudy
11:00 PM62.6 °F53.6 °F72 %30.18 in6.2 miNorth (350°)6.9 mphPartly Cloudy
Hourly data recorded from MHTG, located miles away from Tegucigalpa, Honduras







STORIES FROM OUR PARTNERS